Location: ?erná
(48.7395°N, 14.1141°E)
Time: 16:14:28
(UTC+00:00)

Daily predictions for brighter satellites

Satellite Brightness Start Highest point End
(mag) Time Altitude Azimuth Time Altitude Azimuth Time Altitude Azimuth
Cosmos 2237 4.5 19:42:08 10° NNW 19:47:51 64° ENE 19:53:32 10° SE
Meteor 2-10 Rocket 4.5 19:44:25 10° N 19:49:39 38° ENE 19:54:40 10° SE
SL-4 R/B 2.1 19:46:50 10° WSW 19:50:35 75° NNW 19:54:39 10° ENE
Cosmos 1400 Rocket 3.8 19:47:45 10° SSE 19:51:04 27° E 19:54:21 10° NE
Cosmos 2219 Rocket 4.0 19:46:49 10° N 19:51:11 22° NE 19:55:32 10° E
Cosmos 841 Rocket 3.9 19:50:41 10° NNW 19:55:51 53° ENE 20:01:00 10° SE
SPOT 5 2.9 19:52:15 10° S 19:56:33 70° WSW 20:00:57 10° NNW
Orbus 7S? 4.2 19:51:59 10° WSW 19:57:43 59° NNW 20:00:48 10° NE
ERS-1 Rocket 3.0 19:53:08 10° SSE 19:58:09 78° ENE 20:03:12 10° NNW
Cosmos 1763 Rocket 4.2 19:53:49 10° NNW 19:58:56 53° WSW 20:03:57 10° S
Cosmos 1553 Rocket 4.2 19:54:31 10° NNW 20:00:41 78° W 20:06:55 10° S
ATLAS CENTAUR R/B 2.8 20:00:37 10° SE 20:02:22 13° ESE 20:04:10 10° E
S3M 4.2 19:57:01 10° N 20:03:24 65° ENE 20:09:39 10° SSE
SJ 16-02 3.3 20:03:24 10° ESE 20:05:03 12° E 20:06:42 10° ENE
Spot 2 Rocket 3.6 20:00:32 10° SSE 20:05:33 69° ENE 20:10:37 10° N
Meteor 1-15 Rocket 4.3 20:04:54 10° N 20:10:28 70° ENE 20:16:02 10° SSE
SL-27 R/B 4.0 20:10:27 11° ESE 20:11:21 12° E 20:12:31 10° ENE
Cosmos 1655 Rocket 4.5 20:07:22 10° SSE 20:13:25 47° E 20:19:29 10° NNE
Cosmos 1441 Rocket 3.3 20:10:04 10° NNW 20:13:39 67° W 20:17:14 10° S
Okean-O 4.1 20:09:49 10° SSW 20:13:48 33° W 20:17:50 10° NNW
Cosmos 2360 Rocket 2.8 20:10:00 10° NNW 20:15:29 47° NE 20:20:47 11° SE
ATLAS 2AS CENTAUR R/B 3.1 20:10:33 10° NW 20:17:21 57° NE 20:23:53 10° ESE
Cosmos 2266 Rocket 4.1 20:11:55 10° S 20:18:10 70° E 20:24:33 10° NNE
Cosmos 1733 Rocket 3.8 20:14:41 10° N 20:18:50 38° ENE 20:22:29 13° SE
Cosmos 1300 3.2 20:16:49 10° N 20:20:14 41° ENE 20:23:03 14° SE
USA 245 3.6 20:18:58 10° S 20:22:18 61° W 20:26:33 10° NNW
Cosmos 2333 Rocket 2.8 20:18:18 10° NNW 20:23:54 51° NE 20:29:07 12° SE
SL-16 R/B 2.3 20:18:56 10° NNW 20:24:38 83° WSW 20:29:51 12° SSE
In-Cosmos 22 4.2 20:19:27 10° S 20:25:06 86° ESE 20:30:40 10° NNE
Cosmos 1908 4.0 20:22:35 10° NNW 20:26:02 44° W 20:29:29 10° SSW
Cosmos 1470 4.2 20:22:51 10° NNW 20:26:10 31° W 20:29:28 10° SSW
Cosmos 2082 Rocket 3.6 20:24:19 10° SW 20:29:46 44° NW 20:35:13 10° NNE
Atlas Centaur 2 4.3 20:24:31 10° SW 20:30:07 20° S 20:34:35 13° SSE
Ariane Rocket 3.1 20:25:04 10° SSE 20:30:09 80° WSW 20:35:17 10° NNW
Cosmos 2228 Rocket 3.4 20:28:12 11° SSE 20:32:25 51° E 20:36:52 10° NNE
SL-14 R/B 3.5 20:29:37 12° SSE 20:32:55 49° E 20:36:37 10° NNE
MetOp-A 4.3 20:29:06 13° SE 20:33:36 58° ENE 20:38:46 10° N
Meteor 1-12 Rocket 4.4 20:29:55 10° N 20:35:58 85° ENE 20:41:31 12° SSE
RESURS DK-1 2.3 20:32:07 10° NNW 20:36:13 90° NNE 20:39:23 16° SSE
Okean O Rocket 4.4 20:34:49 10° WSW 20:36:27 12° W 20:38:05 10° WNW
Tiangong 0.2 20:38:13 10° SW 20:39:09 11° SSW 20:39:45 11° SSW
Okean 1-7 4.5 20:36:48 14° SE 20:39:16 23° E 20:42:40 10° NE
Cosmos 1869 Rocket 4.3 20:36:36 10° NNW 20:40:55 51° W 20:45:13 10° S
Cosmos 1850 Rocket 4.1 20:36:44 10° S 20:41:51 57° ESE 20:46:58 10° NNE
Cosmos 1346 Rocket 2.8 20:39:48 10° N 20:43:41 67° ENE 20:46:26 18° SSE
Terra 2.6 20:39:58 10° S 20:44:30 47° W 20:49:05 10° NNW
SPOT 3 Rocket 3.8 20:40:43 11° S 20:45:38 65° WSW 20:50:48 10° NNW
USA 281 3.8 20:42:02 12° SE 20:47:56 50° NE 20:54:14 10° NNW
Timation 1 Rocket 4.3 20:44:33 10° SSW 20:50:29 78° ESE 20:56:28 10° NNE
EXPRESS MD2 1.8 20:51:30 10° WSW 20:54:04 88° N 20:56:14 10° ENE
Cosmos 2333 4.4 20:49:29 10° NNW 20:55:15 66° ENE 20:59:44 17° SE
Cosmos 2315 Rocket 4.2 20:50:10 10° NNW 20:56:33 79° W 21:02:15 13° S
Cosmos 1758 3.5 20:54:18 10° NNW 20:58:10 65° W 21:01:09 16° S
Cosmos 1741 Rocket 4.0 20:55:45 10° SSW 21:01:00 78° ESE 21:06:20 10° NNE
Cosmos 968 Rocket 3.5 20:59:28 12° S 21:04:09 62° ESE 21:09:17 10° NNE
Cosmos 2322 Rocket 2.5 21:02:50 10° NNW 21:08:27 62° WSW 21:12:36 18° S
Cosmos 1814 Rocket 4.1 21:03:19 10° NNW 21:08:39 76° ENE 21:12:20 20° SSE
Cosmos 1356 Rocket 3.6 21:06:07 12° SSW 21:09:59 75° WNW 21:14:13 10° N
SeaSat 1 4.3 21:08:17 10° SSW 21:12:02 22° WSW 21:15:49 10° NW
Cosmos 1703 Rocket 4.5 21:11:39 21° SE 21:13:52 34° E 21:17:54 10° NNE
Cosmos 1862 Rocket 3.6 21:11:25 15° SSW 21:15:02 83° WNW 21:19:29 10° N
Meteor 1-21 4.4 21:13:03 11° SSW 21:18:38 83° WNW 21:24:30 10° N
Okean 2 3.5 21:19:14 25° SSE 21:21:20 55° E 21:25:16 10° NNE
USA 234 3.6 21:15:12 10° NE 21:21:42 69° NNW 21:28:11 10° WSW
BREEZE-M DEB (TANK) 4.1 21:04:18 10° WSW 21:23:48 89° NNW 21:28:20 10° E
Cosmos 1455 2.1 21:24:38 10° N 21:28:07 61° ENE 21:29:35 31° SSE
COSMOS 2428 3.5 21:23:58 10° NNW 21:29:28 46° NE 21:33:47 16° ESE
SL-4 R/B 2.6 21:25:46 10° WNW 21:29:39 56° N 21:33:47 10° E
COSMOS 2455 4.2 21:29:10 17° SE 21:31:01 20° ESE 21:35:14 10° ENE
Landsat 5 4.4 21:30:17 10° N 21:34:04 44° WNW 21:37:58 10° SW
Cosmos 2219 Rocket 2.2 21:30:11 10° NNW 21:35:54 88° WSW 21:39:27 24° SSE
ATLAS CENTAUR R/B 1.4 21:36:03 10° SW 21:39:31 63° NW 21:43:07 10° NE
ARIANE 5 R/B 2.5 21:39:26 28° SSE 21:41:42 89° W 21:46:04 10° NNW
Cosmos 1315 Rocket 2.7 21:39:54 26° SSW 21:42:07 89° WNW 21:46:08 10° NNE
SJ 16-02 1.3 21:39:28 17° SSW 21:42:42 79° WNW 21:47:04 10° NNE
Kosmos-1783 4.4 21:39:23 10° NW 21:43:05 89° NE 21:48:19 19° SE
Meteor 1-4 Rocket 2.6 21:41:42 26° SW 21:43:05 52° WNW 21:46:02 10° N
SL-27 R/B 3.6 21:41:51 13° SW 21:43:59 31° WNW 21:46:32 10° N
Okean 3 4.2 21:41:42 15° SSW 21:44:52 49° WNW 21:48:57 10° N
Cosmos 1953 2.3 21:41:59 10° NNW 21:45:48 72° W 21:47:31 31° S
Cosmos 1241 Rocket 4.4 21:42:42 10° SSW 21:48:46 75° ESE 21:55:02 10° NE
Cosmos 1745 Rocket 4.3 21:45:23 24° SSE 21:49:13 57° E 21:55:26 10° NNE
Nadezhda 1 Rocket 4.0 21:51:25 10° N 21:57:47 81° E 22:01:33 26° SSE
Cosmos 2360 Rocket 3.3 21:54:17 10° NW 21:59:18 33° WSW 22:02:32 19° SSW
H-2A R/B 2.5 21:59:14 32° SSE 22:01:12 83° ENE 22:05:30 10° NNW
GP-B 3.2 21:57:47 10° N 22:02:12 73° W 22:04:27 28° SSW
Cosmos 839 Rocket 4.4 21:56:37 10° NW 22:03:18 54° WSW 22:06:44 25° S
Cosmos 1386 Rocket 4.5 22:01:58 24° S 22:06:04 85° E 22:12:18 10° N
SL-16 R/B 4.4 22:04:56 10° WNW 22:07:49 14° W 22:10:41 10° SW
Cosmos 2333 Rocket 3.4 22:02:58 10° NW 22:07:58 31° WSW 22:11:07 19° SSW
ATLAS 2AS CENTAUR R/B 3.3 22:01:49 10° NW 22:08:03 40° WSW 22:11:32 23° S
Cosmos 1908 Rocket 4.1 22:04:50 10° NNW 22:09:02 49° W 22:11:05 27° SSW
Cosmos 1782 Rocket 3.4 22:07:19 10° N 22:11:40 87° W 22:13:29 35° S
BREEZE-M DEB (TANK) 3.7 22:11:17 10° W 22:14:24 81° N 22:23:52 10° E
Okean 1-7 4.1 22:13:22 17° SW 22:16:20 39° WNW 22:20:25 10° N
Cosmos 1408 1.9 22:22:39 65° SE 22:22:56 72° E 22:25:55 10° NNE
Cosmos 1242 Rocket 3.0 22:23:20 31° WSW 22:23:57 36° WNW 22:26:33 10° N
BlueWalker 3 2.3 22:24:28 41° SE 22:24:28 41° SE 22:27:54 10° ENE
SL-16 R/B 4.4 22:20:04 10° N 22:24:25 22° NE 22:28:44 10° E
BREEZE-M DEB (TANK) 3.2 22:21:09 10° WNW 22:24:33 36° N 22:26:31 10° ENE
Cosmos 405 Rocket 3.8 22:25:03 10° N 22:28:32 35° ENE 22:29:56 26° ESE
Spot 2 4.4 22:28:05 32° S 22:30:32 84° WSW 22:35:38 10° NNW
Cosmos 1570 Rocket 4.4 22:26:49 10° NNW 22:32:02 54° WSW 22:34:28 30° SSW
Cosmos 1300 Rocket 3.7 22:28:01 10° NNW 22:32:17 64° W 22:33:55 35° SSW
USA 281 3.9 22:28:55 23° SSW 22:32:32 41° WSW 22:38:42 10° NW
Meteor 1-24 Rocket 4.1 22:30:01 28° SSE 22:32:53 54° E 22:38:23 10° NNE
Cosmos 2237 Rocket 2.7 22:27:42 10° NNW 22:33:18 56° ENE 22:37:15 19° SE
Cosmos 2322 4.0 22:27:57 10° NW 22:33:30 56° WSW 22:36:10 30° S
H-2A R/B 3.1 22:30:22 10° NNE 22:34:11 31° E 22:35:22 26° SE
ALOS 2 2.6 22:32:43 36° S 22:34:27 77° WSW 22:38:53 10° NNW
NOSS 8 (E) 4.5 22:35:35 47° S 22:36:22 62° SE 22:39:30 10° NE
Okean 2 Rocket 4.2 22:33:08 10° N 22:37:17 36° ENE 22:39:28 23° SE
Cosmos 371 Rocket 3.4 22:38:27 35° S 22:40:18 58° ESE 22:45:02 10° NNE
Cosmos 2227 Rocket 3.6 22:38:36 19° SE 22:40:34 23° ESE 22:44:57 10° NE
CZ-3 Stage 3 4.5 22:20:01 10° W 22:41:23 28° SW 22:45:18 23° S
CZ-4C R/B 2.2 22:42:24 35° SSE 22:43:50 46° ESE 22:49:06 10° NE
BREEZE-M DEB (TANK) 3.0 22:45:04 51° S 22:45:23 55° SSE 22:50:24 10° ENE
Cosmos 1703 3.0 22:44:41 48° S 22:45:37 80° E 22:49:19 10° NNE
Cosmos 1980 3.8 22:40:32 10° NNW 22:46:13 72° ENE 22:49:45 24° SE
Cosmos 1709 Rocket 4.1 22:45:07 26° SSW 22:48:54 80° W 22:55:19 10° N
Cosmos 1674 Rocket 4.4 22:49:36 29° SE 22:51:06 38° E 22:55:09 10° NNE
Cosmos 1378 Rocket 4.1 22:51:43 33° SE 22:53:12 47° E 22:57:25 10° NNE
Cosmos 2221 Rocket 4.5 22:52:51 28° SE 22:54:28 38° E 22:58:36 10° NNE
NOSS 0 Rocket 4.0 22:49:15 10° NNW 22:55:27 69° WSW 22:58:44 29° S
Cosmos 158 Rocket 4.5 22:51:01 10° NNW 22:56:07 47° WSW 22:58:13 30° SSW
Sich 1 Rocket 3.9 22:55:07 10° N 22:59:29 58° ENE 23:01:19 32° SE
Cosmos 2242 Rocket 4.0 22:57:30 29° SW 22:59:37 56° WNW 23:04:08 10° N
Cosmos 2297 Rocket 2.3 22:57:54 31° S 23:00:29 59° ESE 23:06:03 10° NE
Meteor 2-5 Rocket 3.8 22:57:47 30° S 23:00:56 88° E 23:06:49 10° NNE
USA 234 4.4 22:58:05 10° ENE 23:04:13 44° N 23:10:21 10° WNW
GEOS 3 Rocket 3.9 22:59:16 10° NE 23:04:16 49° SE 23:06:13 32° S
Cosmos 1892 3.0 23:06:43 39° SE 23:07:24 45° E 23:10:47 10° NNE
Cosmos 773 Rocket 4.0 23:03:10 10° NNW 23:08:17 67° WSW 23:10:31 33° S
SL-4 R/B 1.9 23:04:32 10° WNW 23:08:37 79° SSW 23:12:04 16° ESE
COSMOS 2428 3.6 23:08:28 10° NW 23:13:34 34° WSW 23:15:45 26° SSW
Cosmos 2098 Rocket 4.2 23:08:21 10° NNW 23:14:55 69° W 23:18:28 28° S
CENTAUR R/B 3.4 23:12:45 24° SSE 23:14:56 31° ESE 23:20:43 10° NE
COSMOS 2455 2.9 23:12:16 23° SW 23:16:13 84° NW 23:22:18 10° NE
NOSS 8 (H) 4.5 23:15:28 36° WSW 23:16:43 70° NW 23:19:45 10° NE
Cosmos 2154 Rocket 4.5 23:13:33 25° SSE 23:17:02 51° E 23:23:05 10° NNE
ATLAS CENTAUR R/B 4.1 23:16:03 10° WNW 23:17:55 13° NNW 23:19:48 10° N
Cosmos 1503 Rocket 4.0 23:15:43 30° SSW 23:18:25 89° WNW 23:23:45 10° NNE
Cosmos 2219 Rocket 4.1 23:15:50 10° WNW 23:18:59 15° W 23:21:08 13° WSW
Cosmos 1777 Rocket 4.0 23:18:39 32° SSW 23:21:11 82° ESE 23:26:29 10° NNE
SJ 16-02 4.1 23:20:03 10° WNW 23:21:51 12° NW 23:23:38 10° NNW
PSLV R/B 4.2 23:27:07 10° N 23:31:13 47° WNW 23:33:07 27° SW
Cosmos 332 Rocket 3.9 23:31:18 34° S 23:33:22 67° ESE 23:38:14 10° NNE
Cosmos 304 Rocket 4.1 23:31:07 26° SW 23:33:39 58° WNW 23:38:22 10° NNE
Cosmos 2263 Rocket 3.6 23:33:49 18° SE 23:36:27 25° ESE 23:40:54 10° NE
Cosmos 1174 4.0 23:33:04 10° NW 23:38:08 74° WSW 23:39:54 34° SSE
Okean 1 Rocket 3.0 23:36:58 10° NNW 23:41:20 82° W 23:43:05 36° S
Resurs 1-4 Rocket 4.3 23:40:15 10° NE 23:43:14 15° E 23:46:12 10° ESE
Cosmos 2181 Rocket 4.4 23:40:24 10° NNW 23:46:20 49° W 23:49:34 26° SSW
Cosmos 1825 2.1 23:47:12 43° SW 23:48:02 60° W 23:51:27 10° N
Helios 1A Rocket 3.5 23:46:37 23° SE 23:48:42 48° ENE 23:52:23 10° N
